{"data":{"norad_id":59423,"epoch":"2026-05-25T02:21:37.896192Z","epoch_age_seconds":70483,"freshness":"FRESH","line1":"1 59423U 24065C   26145.09835528  .00002522  00000+0  25676-4 0  9998","line2":"2 59423  53.1592  77.2398 0001230 124.1400 235.9735 15.69707458123523","mean_motion":15.69707458,"eccentricity":0.000123,"inclination_deg":53.1592,"raan_deg":77.2398,"arg_perigee_deg":124.14,"mean_anomaly_deg":235.9735,"bstar":2.5676e-5,"rev_number":12352,"period_min":91.73683877598,"perigee_km":358.90526652454,"apogee_km":360.56278279661,"semimajor_km":6737.8710246606,"source":"CELESTRAK","updated_at":"2026-05-25T13:38:18.944160Z"}}